DW2150 Weather Reports


time (UTC)temp
C
wind
direction
speed
KPH
gust
KPH
rain 1hr
cm
rain 24hr
cm
rain mn
cm
humidity
%
barometer
mb
20260506161247 26 355 0.0 0.0 0.00 0.00 0.00 94 1010.8
20260506160742 26 355 0.0 0.0 0.00 0.00 0.00 93 1011.2
20260506160239 26 355 0.0 0.0 0.00 0.00 0.00 93 1011.2
20260506155655 26 355 0.0 0.0 0.00 0.00 0.00 93 1010.8
20260506155132 26 355 0.0 0.0 0.00 0.00 0.00 94 1010.8
20260506154629 25 355 0.0 0.0 0.00 0.00 0.00 94 1010.5
20260506154126 25 360 0.0 0.0 0.00 0.00 0.00 94 1010.5
20260506153623 25 333 0.0 0.0 0.00 0.00 0.00 93 1010.5
20260506153120 25 333 0.0 0.0 0.00 0.00 0.00 93 1010.5
20260506152616 25 333 0.0 0.0 0.00 0.00 0.00 93 1010.5
20260506152042 25 329 0.0 0.0 0.00 0.00 0.00 94 1010.5
20260506151538 25 329 0.0 0.0 0.00 0.00 0.00 94 1010.5
20260506151035 25 329 0.0 0.0 0.00 0.00 0.00 94 1010.5
20260506150532 25 329 0.0 0.0 0.00 0.00 0.00 94 1010.2
20260506150028 25 329 0.0 0.0 0.00 0.00 0.00 94 1010.2
20260506145526 25 328 0.0 0.0 0.00 0.00 0.00 94 1010.2
20260506145023 25 328 0.0 0.0 0.00 0.00 0.00 94 1010.2
20260506144519 25 328 0.0 0.0 0.00 0.00 0.00 94 1009.8
20260506144011 25 328 0.0 0.0 0.00 0.00 0.00 94 1009.8
20260506143508 25 328 0.0 0.0 0.00 0.00 0.00 94 1009.8
20260506143004 25 329 0.0 0.0 0.00 0.00 0.00 94 1010.2
20260506142459 25 328 0.0 0.0 0.00 0.00 0.00 94 1010.2
20260506141952 25 329 0.0 0.0 0.00 0.00 0.00 94 1010.2
20260506141447 25 329 0.0 0.0 0.00 0.00 0.00 94 1010.2
20260506140943 25 329 0.0 0.0 0.00 0.00 0.00 94 1010.2
20260506140438 25 328 0.0 0.0 0.00 0.00 0.00 95 1010.2
20260506135901 25 328 0.0 0.0 0.00 0.00 0.00 95 1010.2
20260506135357 25 328 0.0 0.0 0.00 0.00 0.00 95 1010.2
20260506134820 25 328 0.0 0.0 0.00 0.00 0.00 95 1010.2
20260506134245 25 328 0.0 0.0 0.00 0.00 0.00 95 1010.2
20260506133741 25 328 0.0 0.0 0.00 0.00 0.00 95 1010.2
20260506133205 25 328 0.0 0.0 0.00 0.00 0.00 95 1010.2
20260506132700 25 328 0.0 0.0 0.00 0.00 0.00 95 1010.2
20260506132126 25 328 0.0 0.0 0.00 0.00 0.00 95 1010.2
20260506131621 25 329 0.0 0.0 0.00 0.00 0.00 95 1010.5
20260506131059 25 328 0.0 0.0 0.00 0.00 0.00 95 1010.2
20260506130533 25 328 0.0 0.0 0.00 0.00 0.00 95 1010.2
20260506130029 24 328 0.0 0.0 0.00 0.00 0.00 95 1010.2
20260506125453 24 328 0.0 0.0 0.00 0.00 0.00 95 1010.2
20260506124949 24 328 0.0 0.0 0.00 0.00 0.00 95 1010.2
20260506124445 24 329 0.0 0.0 0.00 0.00 0.00 95 1010.2
20260506123941 24 328 0.0 0.0 0.00 0.00 0.00 95 1010.2
20260506123436 24 328 0.0 0.0 0.00 0.00 0.00 95 1010.2
20260506122931 24 328 0.0 0.0 0.00 0.00 0.00 95 1010.2
20260506121848 24 329 0.0 0.0 0.00 0.00 0.00 95 1009.8
20260506121314 24 328 0.0 0.0 0.00 0.00 0.00 95 1009.8
20260506120752 24 328 0.0 0.0 0.00 0.00 0.00 95 1009.8
20260506120249 24 327 0.0 0.0 0.00 0.00 0.00 95 1009.8
20260506115746 24 333 0.0 0.0 0.00 0.00 0.00 95 1009.8
20260506115243 24 333 0.0 0.0 0.00 0.00 0.00 95 1009.5
20260506114739 24 333 0.0 0.0 0.00 0.00 0.00 95 1009.5
20260506114236 24 333 0.0 0.0 0.00 0.00 0.00 95 1009.5
20260506113733 24 333 0.0 0.0 0.00 0.00 0.00 95 1009.5
20260506113230 24 333 0.0 0.0 0.00 0.00 0.00 95 1009.5
20260506112727 24 333 0.0 0.0 0.00 0.00 0.00 95 1009.1
20260506112223 24 333 0.0 0.0 0.00 0.00 0.00 95 1009.1
20260506111720 24 333 0.0 0.0 0.00 0.00 0.00 95 1009.1
20260506111202 24 333 0.0 0.0 0.00 0.00 0.00 95 1009.1
20260506110659 24 333 0.0 0.0 0.00 0.00 0.00 95 1009.1
20260506110137 24 333 0.0 0.0 0.00 0.00 0.00 94 1009.1
20260506105612 24 333 0.0 0.0 0.00 0.00 0.00 95 1009.1
20260506105109 24 333 0.0 0.0 0.00 0.00 0.00 95 1009.1
20260506104535 24 333 0.0 0.0 0.00 0.00 0.00 95 1009.1
20260506104031 24 333 0.0 0.0 0.00 0.00 0.00 95 1009.1
20260506103528 23 15 0.0 0.0 0.00 0.00 0.00 94 1009.1
20260506103025 23 15 0.0 0.0 0.00 0.00 0.00 94 1009.1
20260506102522 24 15 0.0 0.0 0.00 0.00 0.00 94 1009.1
20260506102019 24 15 0.0 0.0 0.00 0.00 0.00 94 1009.1
20260506101516 24 15 0.0 0.0 0.00 0.00 0.00 94 1008.8
20260506101013 24 15 0.0 0.0 0.00 0.00 0.00 94 1008.8
20260506100510 24 15 0.0 0.0 0.00 0.00 0.00 94 1008.8
20260506095905 24 340 0.0 0.0 0.00 0.00 0.00 94 1008.8
20260506095402 24 346 0.0 0.0 0.00 0.00 0.00 94 1008.8
20260506094859 23 5 0.0 0.0 0.00 0.00 0.00 94 1008.8
20260506094355 23 26 0.0 0.0 0.00 0.00 0.00 94 1008.8
20260506093852 24 26 0.0 0.0 0.00 0.00 0.00 94 1008.8
20260506093349 24 26 0.0 0.0 0.00 0.00 0.00 94 1008.8
20260506092814 24 26 0.0 0.0 0.00 0.00 0.00 94 1009.1
20260506092310 24 26 0.0 0.0 0.00 0.00 0.00 94 1008.8
20260506091807 24 26 0.0 0.0 0.00 0.00 0.00 94 1008.8
20260506091304 24 26 0.0 0.0 0.00 0.00 0.00 94 1009.1
20260506090800 24 26 0.0 0.0 0.00 0.00 0.00 94 1009.1
20260506090257 24 26 0.0 0.0 0.00 0.00 0.00 94 1008.8
20260506085754 24 26 0.0 0.0 0.00 0.00 0.00 94 1009.1
20260506085220 24 26 0.0 0.0 0.00 0.00 0.00 94 1009.1
20260506084645 24 26 0.0 0.0 0.00 0.00 0.00 94 1009.1
20260506084142 24 26 0.0 0.0 0.00 0.00 0.00 94 1009.1
20260506083638 24 53 0.0 0.0 0.00 0.00 0.00 94 1009.1
20260506083135 24 360 0.0 0.0 0.00 0.00 0.00 94 1009.1
20260506082632 24 360 0.0 0.0 0.00 0.00 0.00 94 1009.1
20260506082129 24 360 0.0 0.0 0.00 0.00 0.00 94 1009.1
20260506081625 24 360 0.0 0.0 0.00 0.00 0.00 93 1009.5
20260506081122 24 360 0.0 0.0 0.00 0.00 0.00 93 1009.5
20260506080601 24 360 0.0 0.0 0.00 0.00 0.00 94 1009.5
20260506073520 24 360 0.0 0.0 0.00 0.00 0.00 94 1009.8
20260506073016 24 360 0.0 0.0 0.00 0.00 0.00 94 1009.8
20260506072514 24 360 0.0 0.0 0.00 0.00 0.00 93 1009.8
20260506072011 24 360 0.0 0.0 0.00 0.00 0.00 93 1009.8
20260506071449 24 360 0.0 0.0 0.00 0.00 0.00 93 1010.2
20260506070926 24 360 0.0 0.0 0.00 0.00 0.00 93 1010.2
20260506070424 24 360 0.0 0.0 0.00 0.00 0.00 93 1010.2
20260506062237 24 360 0.0 0.0 0.00 0.00 0.00 93 1009.8
20260506061734 24 360 0.0 0.0 0.00 0.00 0.00 93 1009.8
20260506061230 24 348 0.0 0.0 0.00 0.00 0.00 93 1009.8
20260506060727 24 355 0.0 0.0 0.00 0.00 0.00 93 1009.8
20260506060152 24 355 0.0 0.0 0.00 0.00 0.00 93 1009.8
20260506051019 25 169 0.0 0.0 0.00 0.00 0.00 93 1010.2
20260506050516 25 169 0.0 0.0 0.00 0.00 0.00 93 1010.2
20260506044935 25 134 0.0 0.0 0.00 0.00 0.00 93 1009.8
20260506044432 25 134 0.0 0.0 0.00 0.00 0.00 93 1009.8
20260506043929 25 134 0.0 0.0 0.00 0.00 0.00 93 1009.8
20260506043426 25 336 0.0 0.0 0.00 0.00 0.00 93 1009.8
20260506042922 25 5 0.0 0.0 0.00 0.00 0.00 93 1009.8
20260506042419 25 5 0.0 3.2 0.00 0.00 0.00 93 1009.8
20260506041916 25 5 0.0 3.2 0.00 0.00 0.00 93 1010.2
20260506041342 25 5 0.0 3.2 0.00 0.00 0.00 92 1009.8
20260506040838 25 185 1.6 3.2 0.00 0.00 0.00 92 1009.8
20260506040335 25 186 1.6 1.6 0.00 0.00 0.00 92 1009.8
20260506035831 25 185 1.6 1.6 0.00 0.00 0.00 92 1009.8
20260506035328 25 132 0.0 3.2 0.00 0.00 0.00 92 1009.8
20260506034754 25 134 1.6 3.2 0.00 0.00 0.00 92 1009.8
20260506034251 25 134 1.6 3.2 0.00 0.00 0.00 92 1009.8
20260506033748 25 134 1.6 4.8 0.00 0.00 0.00 92 1009.8
20260506033245 25 134 1.6 4.8 0.00 0.00 0.00 92 1009.8
20260506032742 25 159 1.6 4.8 0.00 0.00 0.00 92 1009.8
20260506032239 25 159 1.6 4.8 0.00 0.00 0.00 92 1009.8
20260506031736 25 322 0.0 1.6 0.00 0.00 0.00 92 1009.8
20260506031233 25 17 0.0 1.6 0.00 0.00 0.00 92 1009.5
20260506030627 25 17 0.0 1.6 0.00 0.00 0.00 92 1009.5
20260506030124 25 17 0.0 1.6 0.00 0.00 0.00 92 1009.5
20260506025620 25 17 0.0 1.6 0.00 0.00 0.00 92 1009.5
20260506025008 25 201 1.6 1.6 0.00 0.00 0.00 92 1009.5
20260506024446 25 202 0.0 1.6 0.00 0.00 0.00 93 1009.5
20260506023912 25 202 0.0 0.0 0.00 0.00 0.00 93 1009.1
20260506023408 25 201 0.0 0.0 0.00 0.00 0.00 93 1009.1
20260506022846 25 239 0.0 0.0 0.00 0.00 0.00 93 1009.1
20260506022342 25 239 0.0 1.6 0.00 0.00 0.00 93 1009.1
20260506021823 25 239 0.0 1.6 0.00 0.00 0.00 92 1008.8
20260506021320 25 165 0.0 3.2 0.00 0.00 0.00 92 1008.8
20260506020815 25 165 1.6 3.2 0.00 0.00 0.00 92 1008.8
20260506020241 25 165 0.0 3.2 0.00 0.00 0.00 92 1008.8
20260506015738 25 177 1.6 3.2 0.00 0.00 0.00 92 1008.5
20260506015234 25 71 0.0 3.2 0.00 0.00 0.00 92 1008.5
20260506014730 25 71 0.0 3.2 0.00 0.00 0.00 91 1008.5
20260506014156 25 127 1.6 1.6 0.00 0.00 0.00 91 1008.5
20260506013621 25 153 0.0 1.6 0.00 0.00 0.00 91 1008.5
20260506013117 25 153 0.0 3.2 0.00 0.00 0.00 91 1008.5
20260506012614 25 153 0.0 3.2 0.00 0.00 0.00 91 1008.5
20260506012109 25 153 0.0 3.2 0.00 0.00 0.00 91 1008.1
20260506011534 25 153 1.6 6.4 0.00 0.00 0.00 91 1008.1
20260506011030 25 150 1.6 8.0 0.00 0.00 0.00 91 1008.1
20260506010321 25 148 1.6 8.0 0.00 0.00 0.00 91 1008.1
20260506005818 25 189 1.6 8.0 0.00 0.00 0.00 90 1008.1
20260506005315 25 151 3.2 6.4 0.00 0.00 0.00 90 1007.8
20260506004740 25 177 0.0 6.4 0.00 0.00 0.00 90 1007.8
20260506004236 25 186 1.6 6.4 0.00 0.00 0.00 90 1007.8
20260506003733 25 161 0.0 6.4 0.00 0.00 0.00 90 1007.8
20260506003230 25 152 3.2 6.4 0.00 0.00 0.00 90 1007.8
20260506002726 25 157 1.6 4.8 0.00 0.00 0.00 90 1007.8
20260506002223 25 97 1.6 3.2 0.00 0.00 0.00 90 1007.8
20260506001720 25 96 1.6 3.2 0.00 0.00 0.00 90 1007.8
20260506001145 26 111 1.6 3.2 0.00 0.00 0.00 90 1007.8
20260506000520 26 126 0.0 3.2 0.00 0.00 0.00 89 1007.8
20260506000017 26 292 0.0 3.2 0.00 0.00 0.00 89 1007.8
20260505235514 26 309 1.6 3.2 0.00 0.00 0.00 89 1007.8
20260505235011 26 309 1.6 3.2 0.00 0.00 0.00 89 1007.8
20260505234437 26 309 1.6 3.2 0.00 0.00 0.00 89 1007.8
20260505233933 26 310 1.6 3.2 0.00 0.00 0.00 89 1007.8
20260505233411 26 314 1.6 3.2 0.00 0.00 0.00 89 1007.8
20260505232908 26 193 1.6 4.8 0.00 0.00 0.00 88 1007.8
20260505232346 26 187 0.0 4.8 0.00 0.00 0.00 88 1007.8
20260505231842 26 187 1.6 4.8 0.00 0.00 0.00 88 1007.8
20260505231339 26 80 0.0 4.8 0.00 0.00 0.00 88 1007.8
20260505230836 26 114 1.6 4.8 0.00 0.00 0.00 87 1007.8
20260505230302 26 113 1.6 4.8 0.00 0.00 0.00 87 1007.8
20260505225759 26 132 1.6 4.8 0.00 0.00 0.00 87 1007.8
20260505225256 26 169 1.6 6.4 0.00 0.00 0.00 87 1007.8
20260505224651 26 156 1.6 6.4 0.00 0.00 0.00 88 1007.8
20260505224148 26 46 1.6 6.4 0.00 0.00 0.00 88 1007.8
20260505223645 26 84 1.6 6.4 0.00 0.00 0.00 88 1007.8
20260505223142 26 183 3.2 6.4 0.00 0.00 0.00 88 1007.8
20260505222639 26 237 1.6 4.8 0.00 0.00 0.00 88 1008.1
20260505222136 26 107 0.0 4.8 0.00 0.00 0.00 88 1007.8
20260505221614 26 107 1.6 4.8 0.00 0.00 0.00 88 1008.1
20260505221112 26 156 1.6 4.8 0.00 0.00 0.00 88 1007.8
20260505220608 26 167 1.6 4.8 0.00 0.00 0.00 88 1008.1
20260505220105 26 169 1.6 4.8 0.00 0.00 0.00 88 1008.1
20260505215531 26 178 1.6 4.8 0.00 0.00 0.00 88 1008.1
20260505215029 26 177 1.6 4.8 0.00 0.00 0.00 88 1008.1
20260505214525 26 133 1.6 4.8 0.00 0.00 0.00 88 1008.5
20260505214022 26 179 1.6 4.8 0.00 0.00 0.00 88 1008.5
20260505213500 27 166 1.6 4.8 0.00 0.00 0.00 88 1008.1
20260505212957 27 170 1.6 4.8 0.00 0.00 0.00 88 1008.5
20260505212454 27 213 1.6 4.8 0.00 0.00 0.00 87 1008.5
20260505211901 27 144 3.2 6.4 0.00 0.00 0.00 88 1008.5
20260505211358 27 37 3.2 6.4 0.00 0.00 0.00 88 1008.5
20260505210855 27 143 1.6 6.4 0.00 0.00 0.00 88 1008.5
20260505210322 26 134 0.0 6.4 0.00 0.00 0.00 88 1008.5
20260505205819 26 181 1.6 4.8 0.00 0.00 0.00 88 1008.8
20260505205245 27 187 1.6 4.8 0.00 0.00 0.00 88 1008.8
20260505204741 27 223 3.2 4.8 0.00 0.00 0.00 88 1008.8
20260505204238 27 106 1.6 4.8 0.00 0.00 0.00 87 1009.1
20260505203734 27 169 1.6 4.8 0.00 0.00 0.00 88 1009.1
20260505203230 27 200 3.2 4.8 0.00 0.00 0.00 87 1009.1
20260505202727 27 133 1.6 4.8 0.00 0.00 0.00 87 1009.1
20260505202223 27 126 1.6 4.8 0.00 0.00 0.00 88 1009.1
20260505201719 27 56 1.6 4.8 0.00 0.00 0.00 88 1009.1
20260505201216 27 123 1.6 4.8 0.00 0.00 0.00 87 1009.5
20260505200712 27 148 1.6 3.2 0.00 0.00 0.00 88 1009.5
20260505200208 27 216 1.6 4.8 0.00 0.00 0.00 88 1009.5
20260505195633 27 177 1.6 4.8 0.00 0.00 0.00 88 1009.5
20260505195040 27 161 1.6 4.8 0.00 0.00 0.00 88 1009.5
20260505194505 27 19 1.6 4.8 0.00 0.00 0.00 88 1009.5
20260505194002 27 183 0.0 4.8 0.00 0.00 0.00 88 1009.5
20260505193459 27 227 0.0 4.8 0.00 0.00 0.00 88 1009.5
20260505192955 27 125 1.6 4.8 0.00 0.00 0.00 88 1009.5
20260505192452 27 173 1.6 4.8 0.00 0.00 0.00 88 1009.5
20260505191950 27 161 1.6 3.2 0.00 0.00 0.00 89 1009.5
20260505191447 26 161 1.6 4.8 0.00 0.00 0.00 89 1009.5
20260505190943 26 168 1.6 4.8 0.00 0.00 0.00 89 1009.8
20260505190409 26 171 1.6 4.8 0.00 0.00 0.00 89 1009.8
20260505185907 26 126 3.2 4.8 0.00 0.00 0.00 89 1009.8
20260505185332 26 200 1.6 4.8 0.00 0.00 0.00 90 1009.8
20260505184758 26 355 1.6 3.2 0.00 0.00 0.00 90 1009.8
20260505184224 26 156 1.6 3.2 0.00 0.00 0.00 89 1009.8
20260505183650 26 119 0.0 3.2 0.00 0.00 0.00 90 1010.2
20260505183146 26 23 1.6 3.2 0.00 0.00 0.00 90 1009.8
20260505182643 26 33 1.6 3.2 0.00 0.00 0.00 90 1010.2
20260505182108 26 105 0.0 0.0 0.00 0.00 0.00 90 1010.2
20260505181605 26 155 0.0 4.8 0.00 0.00 0.00 90 1010.2
20260505181102 26 155 0.0 4.8 0.00 0.00 0.00 89 1010.2
20260505180558 26 155 0.0 4.8 0.00 0.00 0.00 89 1010.2
20260505180023 26 244 1.6 4.8 0.00 0.00 0.00 89 1010.2
20260505175519 26 211 1.6 3.2 0.00 0.00 0.00 90 1010.2
20260505174843 26 288 1.6 3.2 0.00 0.00 0.00 90 1010.2
20260505174339 26 79 1.6 3.2 0.00 0.00 0.00 90 1010.2
20260505173836 26 211 0.0 3.2 0.00 0.00 0.00 91 1010.2
20260505173333 25 211 0.0 3.2 0.00 0.00 0.00 90 1010.2
20260505172830 25 120 1.6 3.2 0.00 0.00 0.00 91 1010.5
20260505172327 25 126 0.0 6.4 0.00 0.00 0.00 90 1010.5
20260505171823 25 127 1.6 6.4 0.00 0.00 0.00 91 1010.5
20260505171320 25 128 1.6 6.4 0.00 0.00 0.00 91 1010.5
20260505170817 25 22 1.6 6.4 0.00 0.00 0.00 90 1010.5
20260505170258 25 318 3.2 3.2 0.00 0.00 0.00 90 1010.5
20260505165755 25 184 1.6 3.2 0.00 0.00 0.00 90 1010.5
20260505165252 25 138 1.6 3.2 0.00 0.00 0.00 90 1010.5
20260505164718 25 138 1.6 3.2 0.00 0.00 0.00 90 1010.5
20260505164143 25 107 1.6 3.2 0.00 0.00 0.00 90 1010.2
20260505163640 25 135 0.0 3.2 0.00 0.00 0.00 89 1010.5
20260505163136 25 135 1.6 6.4 0.00 0.00 0.00 90 1010.5
20260505162602 25 134 1.6 6.4 0.00 0.00 0.00 90 1010.5
20260505162058 25 163 1.6 6.4 0.00 0.00 0.00 90 1010.5
20260505161452 25 152 1.6 6.4 0.00 0.00 0.00 90 1010.2